date,time,temp c,spcond (ms/cm),ph,do (mg/l),do (%),turbidity (fnu),chlorophyll (rfu),phycocyanin (rfu),sysbattery
06/05/2017,15:30:00,17.57,1.06,7.42,8.79,92.29,6.25,5.63,.86,12.81
06/05/2017,15:45:00,17.54,1.06,7.43,8.79,92.2,6.34,6.56,.88,12.6
06/05/2017,16:00:00,17.52,1.06,7.43,8.75,91.75,6.36,5.18,.82,12.68
06/05/2017,16:15:00,17.51,1.06,7.44,8.75,91.78,6.74,6.76,.85,12.59
06/05/2017,16:30:00,17.48,1.06,7.45,8.79,92.1,6.45,6.58,.91,12.57
06/05/2017,16:45:00,17.45,1.06,7.46,8.84,92.66,6.2,6.22,.87,12.52
06/05/2017,17:00:00,17.42,1.06,7.46,8.9,93.14,6.22,6.31,.84,12.55
06/05/2017,17:15:00,17.37,1.06,7.46,8.91,93.17,6.25,6.25,.81,12.57
06/05/2017,17:30:00,17.32,1.06,7.45,8.86,92.6,6.09,5.88,.83,12.54
06/05/2017,17:45:00,17.31,1.06,7.44,8.82,92.09,6.21,5.76,.81,12.54
06/05/2017,18:00:00,17.3,1.06,7.45,8.8,91.91,6.08,5.84,.86,12.53
06/05/2017,18:15:00,17.28,1.06,7.46,8.82,92.05,6.37,6,.85,12.55
06/05/2017,18:30:00,17.27,1.06,7.46,8.82,92.03,6.53,5.82,.86,12.61
06/05/2017,18:45:00,17.23,1.06,7.46,8.8,91.8,6.09,6.26,.84,12.59
06/05/2017,19:00:00,17.22,1.06,7.47,8.81,91.89,6.49,6.2,.84,12.51
06/05/2017,19:15:00,17.2,1.06,7.48,8.79,91.64,6.55,5.95,.86,12.51
06/05/2017,19:30:00,17.19,1.06,7.48,8.76,91.27,6.6,7.95,.87,12.51
06/05/2017,19:45:00,17.18,1.06,7.48,8.74,91.09,6.58,6.17,.89,12.55
06/05/2017,20:00:00,17.15,1.06,7.49,8.74,91.05,6.92,6.76,.87,12.54
06/05/2017,20:15:00,17.12,1.06,7.5,8.74,90.95,6.86,6.4,.96,12.51
06/05/2017,20:30:00,17.12,1.06,7.49,8.69,90.38,6.65,6.46,.96,12.52
06/05/2017,20:45:00,17.06,1.06,7.48,8.66,90,6.73,6.55,.92,12.57
06/05/2017,21:00:00,17.04,1.06,7.48,8.59,89.23,6.83,6.83,.95,12.59
06/05/2017,21:15:00,17.02,1.06,7.46,8.57,89,6.61,5.77,.92,12.58
06/05/2017,21:30:00,17.01,1.06,7.48,8.61,89.41,7.05,6.57,.96,12.54
06/05/2017,21:45:00,16.98,1.06,7.47,8.57,88.88,7.64,6.3,.94,12.61
06/05/2017,22:00:00,16.95,1.06,7.46,8.51,88.26,7.49,6.23,.96,12.48
06/05/2017,22:15:00,16.91,1.06,7.43,8.39,86.96,7.32,6.1,.85,12.59
06/05/2017,22:30:00,16.86,1.07,7.39,8.24,85.27,6.55,5.39,.82,12.57
06/05/2017,22:45:00,16.84,1.07,7.39,8.28,85.67,6.52,4.95,.79,12.5
06/05/2017,23:00:00,16.8,1.07,7.38,8.23,85.04,6.26,5.46,.75,12.52
06/05/2017,23:15:00,16.78,1.07,7.4,8.28,85.58,7.13,5.4,.82,12.57
06/05/2017,23:30:00,16.75,1.06,7.41,8.28,85.53,6.74,5.36,.84,12.54
06/05/2017,23:45:00,16.72,1.07,7.39,8.21,84.7,6.08,5.36,.82,12.5
06/06/2017,00:00:00,16.7,1.07,7.4,8.26,85.22,6.42,5.2,.83,12.48
06/06/2017,00:15:00,16.68,1.06,7.42,8.3,85.54,6.99,5.96,.84,12.49
06/06/2017,00:30:00,16.68,1.06,7.43,8.32,85.76,7.86,5.76,.95,12.5
06/06/2017,00:45:00,16.63,1.06,7.44,8.36,86.14,7.97,5.9,.89,12.5
06/06/2017,01:00:00,16.62,1.06,7.44,8.33,85.73,8.37,5.94,.89,12.48
06/06/2017,01:15:00,16.58,1.06,7.44,8.34,85.78,7.73,5.67,.86,12.45
06/06/2017,01:30:00,16.56,1.06,7.43,8.29,85.3,7.3,5.47,.85,12.53
06/06/2017,01:45:00,16.55,1.06,7.41,8.24,84.69,7.56,5.47,.88,12.47
06/06/2017,02:00:00,16.53,1.06,7.37,8.06,82.79,7.2,4.71,.78,12.52
06/06/2017,02:15:00,16.49,1.06,7.37,8.04,82.57,6.96,4.68,.76,12.52
06/06/2017,02:30:00,16.46,1.06,7.36,8.02,82.33,7.01,4.57,.72,12.51
06/06/2017,02:45:00,16.44,1.06,7.35,7.96,81.63,6.33,4.5,.72,12.46
06/06/2017,03:00:00,16.42,1.06,7.35,7.96,81.6,6.73,4.52,.74,12.46
06/06/2017,03:15:00,16.41,1.06,7.35,7.93,81.33,7.15,4.51,.74,12.5
06/06/2017,03:30:00,16.38,1.06,7.34,7.92,81.17,7.46,4.41,.7,12.49
06/06/2017,03:45:00,16.34,1.06,7.34,7.89,80.79,6.63,4.62,.74,12.47
06/06/2017,04:00:00,16.3,1.06,7.35,7.95,81.34,7.32,4.19,.7,12.5
06/06/2017,04:15:00,16.26,1.06,7.39,8.09,82.71,7.74,4.87,.75,12.46
06/06/2017,04:30:00,16.21,1.06,7.39,8.1,82.66,7.68,4.93,.79,12.46
06/06/2017,04:45:00,16.17,1.06,7.42,8.16,83.21,7.7,5.06,.83,12.55
06/06/2017,05:00:00,16.14,1.06,7.42,8.16,83.12,7.41,5.31,.82,12.46
06/06/2017,05:15:00,16.11,1.06,7.42,8.14,82.95,7.28,5.25,.83,12.51
06/06/2017,05:30:00,16.07,1.06,7.42,8.15,82.94,7.53,5.17,.74,12.5
06/06/2017,05:45:00,16.04,1.06,7.41,8.12,82.65,7.4,4.83,.8,12.55
06/06/2017,06:00:00,16.02,1.06,7.42,8.13,82.63,7.64,4.98,.8,12.52
06/06/2017,06:15:00,16,1.06,7.41,8.1,82.28,7.77,4.94,.75,12.57
06/06/2017,06:30:00,15.97,1.06,7.41,8.11,82.4,6.87,5.06,.72,12.57
06/06/2017,06:45:00,15.93,1.06,7.41,8.12,82.44,7,4.58,.73,12.53
06/06/2017,07:00:00,15.92,1.06,7.41,8.1,82.17,7.02,5.07,.75,12.47
06/06/2017,07:15:00,15.89,1.06,7.41,8.11,82.23,6.84,4.52,.75,12.55
06/06/2017,07:30:00,15.86,1.06,7.41,8.12,82.24,6.07,4.4,.72,12.57
06/06/2017,07:45:00,15.86,1.06,7.41,8.12,82.24,6.42,4.51,.71,12.52
06/06/2017,08:00:00,15.83,1.06,7.42,8.15,82.51,6.65,4.38,.72,12.54
06/06/2017,08:15:00,15.82,1.06,7.41,8.14,82.46,6.79,4.3,.71,12.5
06/06/2017,08:30:00,15.79,1.06,7.42,8.18,82.81,7.05,4.07,.65,12.57
06/06/2017,08:45:00,15.78,1.06,7.42,8.17,82.69,6.95,4.63,.74,12.55
06/06/2017,09:00:00,15.75,1.06,7.43,8.23,83.24,6.65,4.68,.74,12.5
06/06/2017,09:15:00,15.73,1.06,7.43,8.27,83.53,6.9,4.49,.75,12.57
06/06/2017,09:30:00,15.72,1.06,7.43,8.28,83.7,6.53,4.31,.71,12.67
06/06/2017,09:45:00,15.68,1.06,7.44,8.32,83.98,6.76,4.51,.75,12.6
06/06/2017,10:00:00,15.67,1.06,7.44,8.29,83.62,6.85,4.53,.72,12.58
06/06/2017,10:15:00,15.66,1.05,7.42,8.22,82.94,6.61,4.37,.72,12.57
06/06/2017,10:30:00,15.65,1.05,7.41,8.16,82.3,6.26,4.08,.63,12.52
06/06/2017,10:45:00,15.64,1.05,7.4,8.14,82.12,5.97,3.97,.65,12.68
06/06/2017,11:00:00,15.62,1.05,7.4,8.16,82.26,6.06,4.21,.66,12.58
06/06/2017,11:15:00,15.6,1.05,7.4,8.17,82.29,5.99,4.12,.69,12.57
06/06/2017,11:30:00,15.6,1.05,7.4,8.16,82.25,6.13,3.81,.66,12.7
06/06/2017,11:45:00,15.59,1.04,7.4,8.17,82.34,6.76,3.99,.65,12.62
06/06/2017,12:00:00,15.57,1.04,7.4,8.18,82.38,5.81,4.06,.66,12.58
06/06/2017,12:15:00,15.57,1.04,7.4,8.17,82.29,6.25,3.9,.65,12.54
06/06/2017,12:30:00,15.56,1.04,7.4,8.18,82.39,6.22,3.82,.62,12.59
06/06/2017,12:45:00,15.56,1.04,7.4,8.17,82.27,6.36,3.38,.63,12.57
06/06/2017,13:00:00,15.55,1.04,7.4,8.18,82.35,6.24,4.72,.69,12.57
06/06/2017,13:15:00,15.53,1.04,7.41,8.2,82.55,6.64,4.65,.68,12.71
06/06/2017,13:30:00,15.51,1.04,7.42,8.28,83.31,6.28,4.09,.63,12.85
06/06/2017,13:45:00,15.5,1.04,7.42,8.32,83.66,6.38,4.27,.68,12.89
06/06/2017,14:00:00,15.5,1.04,7.43,8.35,83.97,6.19,4.27,.69,12.83
06/06/2017,14:15:00,15.49,1.04,7.42,8.36,84.06,5.83,4.3,.66,12.95
06/06/2017,14:30:00,15.49,1.04,7.43,8.37,84.18,6.15,4.17,.67,12.91
06/06/2017,14:45:00,15.48,1.03,7.42,8.37,84.15,5.62,4.23,.63,12.83
06/06/2017,15:00:00,15.48,1.03,7.42,8.34,83.78,6.12,4.21,.66,12.74
06/06/2017,15:15:00,15.43,1.04,7.45,8.5,85.37,5.65,4.55,.72,12.63
06/06/2017,15:30:00,15.38,1.04,7.47,8.6,86.29,6.41,4.64,.74,12.62
06/06/2017,15:45:00,15.32,1.04,7.5,8.72,87.34,6.21,5.56,.72,12.58
06/06/2017,16:00:00,15.28,1.04,7.54,8.86,88.7,6.15,5.53,.84,12.69
06/06/2017,16:15:00,15.27,1.04,7.58,9.01,90.17,6.52,5.66,.85,12.55
06/06/2017,16:30:00,15.24,1.04,7.59,9.03,90.33,6.89,6.27,.96,12.52
06/06/2017,16:45:00,15.17,1.03,7.6,9.07,90.59,6.84,5.81,.86,12.51
06/06/2017,17:00:00,15.04,1.01,7.59,9.16,91.24,6.94,5.19,.84,12.49
06/06/2017,17:15:00,14.96,1.01,7.6,9.24,91.85,6.29,5.58,.92,12.46
06/06/2017,17:30:00,14.87,.99,7.57,9.21,91.38,6,4.97,.81,12.46
06/06/2017,17:45:00,14.86,.98,7.51,9.04,89.62,6.23,4.8,.77,12.52
06/06/2017,18:00:00,14.84,.98,7.51,8.99,89.16,5.66,5.25,.77,12.46
06/06/2017,18:15:00,14.83,.97,7.49,8.94,88.55,6.19,4.89,.77,12.46
06/06/2017,18:30:00,14.83,.97,7.48,8.86,87.8,6.26,5.62,1.02,12.46
06/06/2017,18:45:00,14.83,.97,7.46,8.77,86.92,5.79,5.43,1.09,12.44
06/06/2017,19:00:00,14.81,.97,7.46,8.72,86.41,6.36,4.94,.9,12.45
06/06/2017,19:15:00,14.81,.97,7.45,8.66,85.74,6.13,5.34,.88,12.45
06/06/2017,19:30:00,14.81,.97,7.45,8.66,85.76,5.82,4.98,1.01,12.46
06/06/2017,19:45:00,14.81,.97,7.45,8.64,85.6,6.87,5.51,.93,12.46
06/06/2017,20:00:00,14.8,.96,7.41,8.47,83.88,6.12,5.46,1.02,12.46
06/06/2017,20:15:00,14.79,.96,7.41,8.42,83.35,5.78,5.4,.85,12.45
06/06/2017,20:30:00,14.79,.96,7.39,8.33,82.45,5.43,4.87,.78,12.45
06/06/2017,20:45:00,14.79,.95,7.38,8.27,81.83,6.03,5.61,.72,12.43
06/06/2017,21:00:00,14.8,.95,7.35,8.15,80.65,6,4.8,.86,12.53
06/06/2017,21:15:00,14.8,.94,7.34,8.06,79.81,5.4,4.78,.81,12.43
06/06/2017,21:30:00,14.78,.94,7.33,8.04,79.57,5.53,4.22,.73,12.39
06/06/2017,21:45:00,14.76,.94,7.33,8.01,79.27,5.31,4.12,.68,12.43
06/06/2017,22:00:00,14.76,.94,7.34,8.07,79.88,6.65,4.88,.79,12.4
06/06/2017,22:15:00,14.76,.95,7.36,8.09,80.06,7.51,5.19,.97,12.43
06/06/2017,22:30:00,14.72,.94,7.34,8.03,79.42,6.18,4.83,.75,12.45
06/06/2017,22:45:00,14.72,.94,7.34,8.04,79.43,5.89,4.55,1.01,12.43
06/06/2017,23:00:00,14.71,.94,7.34,8.03,79.34,5.88,4.3,.69,12.41
06/06/2017,23:15:00,14.68,.94,7.33,8.02,79.2,5.61,4.42,.71,12.43
06/06/2017,23:30:00,14.66,.94,7.34,8.02,79.18,5.74,4.36,.88,12.41
06/06/2017,23:45:00,14.66,.94,7.33,7.99,78.89,5.45,4.36,.87,12.44
06/07/2017,00:00:00,14.63,.93,7.32,7.95,78.47,5.86,4.14,.69,12.43
06/07/2017,00:15:00,14.64,.94,7.32,7.94,78.32,6.04,4.22,.75,12.41
06/07/2017,00:30:00,14.61,.93,7.32,7.91,77.98,5.53,4.18,.68,12.5
06/07/2017,00:45:00,14.6,.93,7.31,7.88,77.64,4.71,3.92,.87,12.43
06/07/2017,01:00:00,14.6,.92,7.3,7.83,77.14,5.5,3.61,.72,12.44
06/07/2017,01:15:00,14.6,.92,7.3,7.81,77.01,5.36,3.8,.64,12.41
06/07/2017,01:30:00,14.6,.92,7.3,7.79,76.84,5.53,3.77,.63,12.4
06/07/2017,01:45:00,14.59,.92,7.29,7.76,76.5,5.33,3.81,.81,12.47
06/07/2017,02:00:00,14.58,.91,7.27,7.68,75.66,5.83,3.95,.64,12.45
06/07/2017,02:15:00,14.58,.91,7.27,7.64,75.3,4.97,4,.78,12.44
06/07/2017,02:30:00,14.58,.91,7.26,7.58,74.7,5.76,4.17,.67,12.4
06/07/2017,02:45:00,14.58,.91,7.26,7.58,74.65,5.58,3.67,.71,12.41
06/07/2017,03:00:00,14.56,.9,7.24,7.51,73.98,5.5,3.36,.69,12.39
06/07/2017,03:15:00,14.56,.89,7.24,7.46,73.42,5.45,3.32,.59,12.44
06/07/2017,03:30:00,14.55,.89,7.23,7.42,73.06,5.72,3.01,.58,12.43
06/07/2017,03:45:00,14.53,.88,7.22,7.37,72.55,5.36,2.97,.74,12.41
06/07/2017,04:00:00,14.52,.88,7.21,7.3,71.82,6.05,2.83,.73,12.43
06/07/2017,04:15:00,14.5,.87,7.2,7.22,71.06,5.15,2.89,.57,12.45
06/07/2017,04:30:00,14.5,.86,7.19,7.15,70.35,6.14,2.7,.72,12.39
06/07/2017,04:45:00,14.48,.86,7.18,7.13,70.12,4.92,2.57,.56,12.37
06/07/2017,05:00:00,14.5,.86,7.18,7.11,69.96,5.06,2.69,.47,12.45
06/07/2017,05:15:00,14.37,.83,7.17,7.1,69.65,4.97,2.3,.46,12.39
06/07/2017,05:30:00,14.39,.83,7.16,7.04,69.11,5.15,2.27,.41,12.4
06/07/2017,05:45:00,14.25,.8,7.14,6.98,68.26,5.13,1.95,.37,12.46
06/07/2017,06:00:00,14.11,.77,7.13,6.98,68.02,5.01,1.53,.3,12.41
06/07/2017,06:15:00,14.12,.77,7.12,7.01,68.34,5.06,1.49,.28,12.44
06/07/2017,06:30:00,14.14,.77,7.12,7,68.31,5.28,1.55,.31,12.45
06/07/2017,06:45:00,14.16,.77,7.12,7,68.34,5.33,1.54,.31,12.46
06/07/2017,07:00:00,14.17,.77,7.12,7.02,68.51,5.56,1.5,.29,12.46
06/07/2017,07:15:00,14.19,.78,7.13,7.04,68.76,5.51,1.57,.34,12.46
06/07/2017,07:30:00,14.21,.78,7.13,7.06,69.02,5.22,1.66,.32,12.61
06/07/2017,07:45:00,14.22,.78,7.13,7.09,69.28,5.55,1.73,.32,12.57
06/07/2017,08:00:00,14.24,.78,7.14,7.1,69.41,5.39,2.01,.43,12.58
06/07/2017,08:15:00,14.26,.78,7.14,7.12,69.65,6.24,1.84,.39,12.63
06/07/2017,08:30:00,14.29,.78,7.14,7.15,69.95,6.03,1.66,.33,12.82
06/07/2017,08:45:00,14.31,.78,7.15,7.17,70.23,5.27,1.66,.33,12.98
06/07/2017,09:00:00,14.35,.78,7.15,7.21,70.64,5.87,1.59,.33,13.12
06/07/2017,09:15:00,14.42,.79,7.16,7.27,71.35,5.44,1.61,.34,13.25
06/07/2017,09:30:00,14.52,.79,7.16,7.35,72.32,5.61,1.67,.33,13.27
06/07/2017,09:45:00,14.7,.8,7.18,7.5,74.07,5.38,1.54,.29,13.22
06/07/2017,10:00:00,14.78,.8,7.19,7.58,75.03,5.26,1.62,.37,13.22
06/07/2017,10:15:00,14.84,.8,7.19,7.6,75.3,5.33,1.59,.33,13.17
06/07/2017,10:30:00,14.82,.8,7.2,7.62,75.47,5.23,1.74,.35,13.2
06/07/2017,10:45:00,14.91,.81,7.21,7.71,76.45,5.39,1.57,.31,13.24
06/07/2017,11:00:00,15.05,.81,7.22,7.8,77.57,5.3,1.63,.34,13.24
06/07/2017,11:15:00,15.05,.81,7.22,7.81,77.74,5.42,1.64,.37,13.34
06/07/2017,11:30:00,15.22,.81,7.23,7.88,78.66,4.86,1.56,.33,13.33
06/07/2017,11:45:00,15.42,.81,7.23,7.94,79.59,4.8,1.14,.29,13.36
06/07/2017,12:00:00,15.53,.81,7.24,7.96,80.02,4.93,1.36,.29,13.31
06/07/2017,12:15:00,15.59,.81,7.25,8,80.58,4.8,1.26,.26,13.26
06/07/2017,12:30:00,15.65,.81,7.25,8.06,81.23,5.06,1.26,.31,13.29
06/07/2017,12:45:00,15.88,.81,7.25,8.1,82.05,4.76,1.3,.31,13.24
06/07/2017,13:00:00,16.08,.81,7.26,8.13,82.73,4.82,1.28,.27,13.26
06/07/2017,13:15:00,16.07,.81,7.27,8.17,83.13,4.62,1.24,.28,13.32
06/07/2017,13:30:00,16.4,.81,7.28,8.21,84.03,4.6,1.3,.3,13.31
06/07/2017,13:45:00,16.63,.81,7.28,8.23,84.71,4.69,1.25,.32,13.36
06/07/2017,14:00:00,16.67,.81,7.3,8.28,85.26,4.81,1.32,.29,13.29
06/07/2017,14:15:00,16.8,.81,7.3,8.31,85.8,4.88,1.32,.3,13.36
06/07/2017,14:30:00,16.93,.81,7.31,8.36,86.54,4.48,1.31,.31,13.26
06/07/2017,14:45:00,16.91,.81,7.31,8.37,86.62,4.65,1.35,.29,13.27
06/07/2017,15:00:00,17.12,.81,7.32,8.42,87.6,4.71,1.25,.26,13.18
06/07/2017,15:15:00,17.18,.81,7.32,8.45,88.01,4.55,1.38,.29,13.27
06/07/2017,15:30:00,17.36,.81,7.33,8.48,88.57,4.62,1.35,.27,13.39
06/07/2017,15:45:00,17.43,.81,7.33,8.53,89.26,4.75,1.37,.25,13.26
06/07/2017,16:00:00,17.39,.81,7.33,8.52,89.05,4.64,1.34,.27,13.39
06/07/2017,16:15:00,17.14,.8,7.3,8.37,87.06,4.63,1.44,.31,13.49
06/07/2017,16:30:00,17.11,.8,7.3,8.36,86.89,4.68,1.43,.27,13.17
06/07/2017,16:45:00,17.2,.8,7.3,8.39,87.39,4.68,1.42,.28,13.17
06/07/2017,17:00:00,17.34,.8,7.3,8.44,88.15,4.57,1.46,.24,13.22
06/07/2017,17:15:00,17.55,.81,7.31,8.43,88.47,4.18,1.45,.31,13.36
06/07/2017,17:30:00,17.37,.81,7.3,8.46,88.45,4.78,1.49,.32,13.25
06/07/2017,17:45:00,17.38,.81,7.31,8.45,88.33,4.57,1.54,.28,13.22
06/07/2017,18:00:00,17.16,.81,7.3,8.44,87.8,4.54,1.64,.34,13.18
06/07/2017,18:15:00,17.39,.81,7.31,8.49,88.78,4.72,1.62,.3,13.14
06/07/2017,18:30:00,17.69,.81,7.33,8.65,90.96,4.63,1.64,.32,13.16
06/07/2017,18:45:00,17.82,.81,7.35,8.72,92.03,4.12,1.62,.37,13.21
06/07/2017,19:00:00,17.66,.81,7.34,8.66,91.02,4.37,1.75,.34,13.22
06/07/2017,19:15:00,17.53,.81,7.33,8.57,89.91,4.54,1.81,.35,13.25
06/07/2017,19:30:00,17.61,.81,7.34,8.65,90.81,4.47,1.9,.29,13.1
06/07/2017,19:45:00,17.67,.81,7.35,8.63,90.77,4.48,1.93,.37,13
06/07/2017,20:00:00,17.66,.81,7.36,8.73,91.78,4.15,1.87,.33,12.96
06/07/2017,20:15:00,17.68,.81,7.36,8.71,91.62,4.27,1.84,.4,12.78
06/07/2017,20:30:00,17.35,.82,7.32,8.53,89.08,4.46,2.32,.56,12.8
06/07/2017,20:45:00,17.4,.82,7.33,8.57,89.64,4.19,2.28,.43,12.78
06/07/2017,21:00:00,17.5,.82,7.34,8.65,90.61,4.54,2.13,.4,12.87
06/07/2017,21:15:00,17.44,.82,7.35,8.69,90.94,4.41,2.04,.55,12.77
06/07/2017,21:30:00,17.49,.82,7.36,8.69,91,4.69,2.18,.43,12.78
06/07/2017,21:45:00,17.43,.82,7.35,8.67,90.7,4.49,2.14,.38,12.73
06/07/2017,22:00:00,17.41,.82,7.35,8.66,90.61,4.48,2.19,.53,12.76
06/07/2017,22:15:00,17.35,.83,7.34,8.62,90,4.25,2.17,.42,12.73
06/07/2017,22:30:00,17.33,.83,7.35,8.65,90.39,4.46,1.94,.53,12.72
06/07/2017,22:45:00,17.31,.83,7.35,8.64,90.24,4.44,2.18,.42,12.74
06/07/2017,23:00:00,17.27,.84,7.35,8.64,90.1,3.7,2.17,.42,12.72
06/07/2017,23:15:00,17.25,.84,7.34,8.63,89.96,4.72,2.73,.55,12.72
06/07/2017,23:30:00,17.2,.84,7.34,8.63,89.84,4.75,2.38,.49,12.74
06/07/2017,23:45:00,17.17,.84,7.34,8.59,89.38,4.25,2.23,.6,12.72
06/08/2017,00:00:00,17.13,.84,7.34,8.59,89.4,4.07,2.51,.58,12.69
06/08/2017,00:15:00,17.11,.84,7.33,8.57,89.07,4.33,2.38,.43,12.71
06/08/2017,00:30:00,17.07,.84,7.33,8.55,88.8,4.47,2.31,.58,12.72
06/08/2017,00:45:00,17.05,.84,7.33,8.54,88.69,4.37,2.39,.52,12.68
06/08/2017,01:00:00,17.01,.84,7.33,8.53,88.49,4.62,2.42,.52,12.74
06/08/2017,01:15:00,16.99,.84,7.32,8.52,88.37,4.94,2.85,.57,12.68
06/08/2017,01:30:00,16.96,.84,7.32,8.49,87.94,5.06,2.4,.67,12.69
06/08/2017,01:45:00,16.94,.85,7.31,8.47,87.71,4.17,2.31,.63,12.69
06/08/2017,02:00:00,16.91,.85,7.32,8.46,87.6,4.29,2.38,.56,12.7
06/08/2017,02:15:00,16.87,.85,7.31,8.45,87.36,4.46,2.44,.57,12.63
06/08/2017,02:30:00,16.85,.85,7.31,8.43,87.2,4.18,2.43,.6,12.68
06/08/2017,02:45:00,16.82,.85,7.31,8.41,86.91,4.64,2.37,.53,12.63
06/08/2017,03:00:00,16.79,.85,7.3,8.37,86.48,4.24,2.4,.51,12.68
06/08/2017,03:15:00,16.77,.85,7.29,8.34,86.14,4.32,2.27,.49,12.68
06/08/2017,03:30:00,16.74,.85,7.3,8.36,86.23,4.79,2.36,.53,12.68
06/08/2017,03:45:00,16.72,.85,7.29,8.33,85.92,4.08,2.68,.57,12.63
06/08/2017,04:00:00,16.7,.85,7.29,8.29,85.47,3.98,2.34,.5,12.67
06/08/2017,04:15:00,16.67,.85,7.29,8.29,85.37,4.24,2.34,.84,12.63
06/08/2017,04:30:00,16.65,.85,7.28,8.26,85.09,4.7,2.49,.51,12.62
06/08/2017,04:45:00,16.58,.85,7.28,8.25,84.77,4.51,2.5,.57,12.63
06/08/2017,05:00:00,16.53,.86,7.26,8.11,83.27,5.31,2.69,.55,12.63
06/08/2017,05:15:00,16.49,.86,7.26,8.06,82.67,4.86,2.93,.56,12.63
06/08/2017,05:30:00,16.47,.86,7.26,8.08,82.86,4.7,2.41,.66,12.81
06/08/2017,05:45:00,16.43,.86,7.26,8.08,82.82,5.74,2.62,.54,12.94
06/08/2017,06:00:00,16.41,.86,7.26,8.03,82.27,4.99,2.15,.48,13.09
06/08/2017,06:15:00,16.4,.86,7.25,7.98,81.75,5.18,2.41,.55,13.06
06/08/2017,06:30:00,16.4,.86,7.25,7.99,81.88,5.72,2.18,.47,12.93
06/08/2017,06:45:00,16.42,.87,7.26,8.08,82.81,5.23,1.95,.43,13.02
06/08/2017,07:00:00,16.46,.87,7.27,8.11,83.15,5.07,2.23,.51,12.99
06/08/2017,07:15:00,16.48,.87,7.27,8.12,83.34,5.68,2.25,.49,13.09
06/08/2017,07:30:00,16.55,.87,7.27,8.17,83.94,5.64,2.23,.46,13.07
06/08/2017,07:45:00,16.57,.87,7.28,8.21,84.35,4.97,2.22,.4,13.05
06/08/2017,08:00:00,16.51,.88,7.28,8.25,84.7,6.04,2.22,.45,13.01
06/08/2017,08:15:00,16.66,.87,7.29,8.29,85.41,5.74,2.15,.51,13.17
06/08/2017,08:30:00,16.72,.87,7.3,8.35,86.14,5.79,2.03,.42,13.27
06/08/2017,08:45:00,16.75,.87,7.31,8.39,86.55,4.63,2.12,.42,13.26
06/08/2017,09:00:00,16.79,.88,7.32,8.43,87.09,4.8,2.06,.44,13.34
06/08/2017,09:15:00,16.88,.88,7.32,8.45,87.48,4.99,1.96,.4,13.32
06/08/2017,09:30:00,16.78,.87,7.32,8.42,86.97,5.3,1.96,.44,13.36
06/08/2017,09:45:00,16.8,.87,7.32,8.47,87.49,5.07,2.19,.44,13.39
06/08/2017,10:00:00,16.79,.87,7.32,8.46,87.35,4.95,2.23,.42,13.29
06/08/2017,10:15:00,16.94,.87,7.33,8.52,88.26,5.01,1.98,.36,13.21
06/08/2017,10:30:00,16.99,.86,7.33,8.47,87.84,5,2.01,.36,13.39
06/08/2017,10:45:00,17.12,.87,7.32,8.5,88.38,5.07,1.91,.41,13.31
06/08/2017,11:00:00,16.97,.87,7.31,8.37,86.7,5.21,2.02,.34,13.4
06/08/2017,11:15:00,17.13,.88,7.33,8.56,89.04,5.06,2.1,.39,13.34
06/08/2017,11:30:00,17.32,.88,7.36,8.78,91.64,4.77,1.92,.38,13.39
06/08/2017,11:45:00,17.71,.89,7.38,8.87,93.35,4.71,1.72,.34,13.56
06/08/2017,12:00:00,17.66,.9,7.37,8.79,92.4,5.01,1.78,.37,13.44
06/08/2017,12:15:00,18.13,.9,7.4,8.96,95.13,5.1,1.68,.34,13.53
06/08/2017,12:30:00,18.22,.9,7.41,9.03,96.07,4.89,1.59,.38,13.36
06/08/2017,12:45:00,18.43,.91,7.42,9.05,96.73,4.92,1.69,.34,13.46
06/08/2017,13:00:00,18.5,.91,7.42,9.1,97.3,4.92,1.53,.38,13.38
06/08/2017,13:15:00,18.59,.91,7.42,9.07,97.17,4.6,1.52,.3,13.53
06/08/2017,13:30:00,18.35,.92,7.41,9.07,96.76,4.46,1.67,.37,13.47
06/08/2017,13:45:00,18.71,.92,7.42,9.09,97.66,4.17,1.53,.28,13.4
06/08/2017,14:00:00,18.89,.91,7.43,9.12,98.39,4.63,1.55,.35,13.51
06/08/2017,14:15:00,19.24,.9,7.46,9.21,100.03,4.43,1.46,.35,13.6
06/08/2017,14:30:00,19.43,.9,7.47,9.25,100.88,4.3,1.64,.37,13.81
06/08/2017,14:45:00,19.45,.9,7.48,9.31,101.57,4.15,1.94,.38,13.49
06/08/2017,15:00:00,19.31,.9,7.48,9.3,101.16,4.35,1.99,.41,13.58
06/08/2017,15:15:00,19.31,.89,7.47,9.27,100.82,4.49,2.17,.45,13.53
06/08/2017,15:30:00,19.3,.88,7.47,9.32,101.29,4.26,2,.42,13.61
06/08/2017,15:45:00,19.32,.88,7.48,9.37,101.9,4.87,2.14,.47,13.49
06/08/2017,16:00:00,19.5,.88,7.49,9.42,102.8,3.99,2.08,.4,13.5
06/08/2017,16:15:00,19.93,.88,7.53,9.51,104.66,4.29,2.02,.37,13.36
06/08/2017,16:30:00,19.96,.89,7.54,9.53,104.96,4.34,2.19,.45,13.33
06/08/2017,16:45:00,20.06,.89,7.56,9.57,105.6,3.98,2.27,.38,13.26
06/08/2017,17:00:00,20.1,.88,7.57,9.61,106.15,4.33,2.38,.44,13.24
06/08/2017,17:15:00,20.07,.89,7.56,9.63,106.29,4.32,2.39,.46,13.2
06/08/2017,17:30:00,20.01,.88,7.56,9.63,106.21,4.62,2.4,.47,13.2
06/08/2017,17:45:00,19.94,.88,7.57,9.64,106.16,4.49,2.69,.49,13.12
06/08/2017,18:00:00,19.84,.89,7.57,9.69,106.48,4.19,2.73,.48,13.1
06/08/2017,18:15:00,19.74,.89,7.57,9.7,106.39,4.08,2.67,.47,12.98
06/08/2017,18:30:00,19.82,.9,7.59,9.76,107.18,3.97,2.65,.45,12.97
06/08/2017,18:45:00,19.77,.89,7.57,9.72,106.7,4.05,2.6,.48,12.89
06/08/2017,19:00:00,19.79,.89,7.58,9.75,107.07,4.56,2.79,.43,12.89
06/08/2017,19:15:00,19.58,.9,7.54,9.59,104.9,4.04,3.09,.56,12.91
06/08/2017,19:30:00,19.57,.9,7.54,9.59,104.88,4.02,3.46,.65,12.87
06/08/2017,19:45:00,19.6,.9,7.55,9.63,105.3,4.16,3.22,.66,12.87
06/08/2017,20:00:00,19.51,.9,7.53,9.58,104.58,4.68,3.07,.61,12.83
06/08/2017,20:15:00,19.45,.9,7.52,9.54,104.1,4.69,3.61,.65,12.83
06/08/2017,20:30:00,19.33,.91,7.5,9.47,103.06,4.39,3.58,.64,12.82
06/08/2017,20:45:00,19.32,.9,7.5,9.49,103.21,4.25,3.12,.57,12.82
06/08/2017,21:00:00,19.26,.91,7.48,9.35,101.61,4.1,3.64,.76,12.84
06/08/2017,21:15:00,19.26,.91,7.49,9.39,102.01,4.33,3.61,.6,12.83
06/08/2017,21:30:00,19.13,.91,7.47,9.32,100.97,4.64,3.73,.71,12.83
06/08/2017,21:45:00,19.18,.91,7.47,9.29,100.75,4.38,3.39,.59,12.82
06/08/2017,22:00:00,19.11,.9,7.47,9.27,100.36,4.42,3.92,.72,12.8
06/08/2017,22:15:00,19.18,.9,7.49,9.37,101.59,4.46,3.54,.64,12.83
06/08/2017,22:30:00,19.13,.91,7.47,9.27,100.46,4.2,3.93,.78,12.79
06/08/2017,22:45:00,19.13,.91,7.48,9.29,100.66,4.53,3.22,.71,12.79
06/08/2017,23:00:00,19.05,.91,7.47,9.29,100.52,4.14,3.56,.68,12.85
06/08/2017,23:15:00,19.04,.91,7.48,9.29,100.48,4.12,3.4,.68,12.8
06/08/2017,23:30:00,19.01,.91,7.48,9.29,100.38,5.66,3.4,.68,12.79
06/08/2017,23:45:00,18.99,.91,7.47,9.26,100.11,4.68,4.64,.74,12.77
06/09/2017,00:00:00,18.96,.91,7.47,9.25,99.91,4.51,3.76,.77,12.77
06/09/2017,00:15:00,18.9,.91,7.47,9.22,99.47,4.41,3.42,.67,12.78
06/09/2017,00:30:00,18.87,.91,7.46,9.19,99.12,4.22,3.67,.8,12.78
06/09/2017,00:45:00,18.84,.91,7.45,9.15,98.55,4.39,3.77,.84,12.85
06/09/2017,01:00:00,18.81,.91,7.45,9.13,98.33,4.57,4.2,.69,12.73
06/09/2017,01:15:00,18.81,.91,7.45,9.14,98.39,4.7,3.13,.67,12.78
06/09/2017,01:30:00,18.78,.91,7.44,9.12,98.08,4.21,3.27,.73,12.74
06/09/2017,01:45:00,18.76,.92,7.44,9.09,97.74,4.34,2.99,.65,12.76
06/09/2017,02:00:00,18.74,.92,7.44,9.07,97.54,5.02,3.62,.97,12.73
06/09/2017,02:15:00,18.73,.92,7.44,9.07,97.46,4.23,3.47,.72,12.77
06/09/2017,02:30:00,18.73,.92,7.44,9.05,97.27,4.59,3.71,.73,12.73
06/09/2017,02:45:00,18.71,.92,7.44,9.02,96.94,9.38,3.86,.85,12.75
06/09/2017,03:00:00,18.68,.92,7.43,9,96.6,4.62,3.65,.7,12.71
06/09/2017,03:15:00,18.67,.92,7.43,8.96,96.2,5.26,3.58,.78,12.71
06/09/2017,03:30:00,18.65,.92,7.42,8.94,95.92,5.07,3.33,.66,12.71
06/09/2017,03:45:00,18.64,.92,7.42,8.95,95.98,4.14,3.82,.61,12.71
06/09/2017,04:00:00,18.6,.92,7.42,8.91,95.49,5.08,3.55,.8,12.72
06/09/2017,04:15:00,18.6,.92,7.41,8.88,95.17,4.32,4.12,.68,12.73
06/09/2017,04:30:00,18.58,.92,7.41,8.85,94.88,4.74,3.76,.92,12.73
06/09/2017,04:45:00,18.56,.92,7.41,8.84,94.67,4.12,3.39,.68,12.71
06/09/2017,05:00:00,18.54,.92,7.4,8.8,94.19,4.49,4.52,.92,12.72
06/09/2017,05:15:00,18.53,.92,7.4,8.78,94.01,5.06,4.17,.67,12.79
06/09/2017,05:30:00,18.51,.92,7.4,8.78,94,5.04,3.89,.69,12.71
06/09/2017,05:45:00,18.48,.92,7.41,8.78,93.93,4.54,3.5,.64,12.7
06/09/2017,06:00:00,18.46,.92,7.4,8.74,93.42,4.27,3.45,.73,12.7
06/09/2017,06:15:00,18.44,.92,7.39,8.73,93.33,4.32,3.62,.66,12.74
06/09/2017,06:30:00,18.39,.92,7.39,8.71,92.96,4.4,3.55,.82,12.73
06/09/2017,06:45:00,18.37,.92,7.38,8.65,92.31,5.01,3.5,.68,12.83
06/09/2017,07:00:00,18.35,.92,7.38,8.63,92.09,4.32,3.16,.65,12.74
06/09/2017,07:15:00,18.34,.92,7.38,8.66,92.37,4.31,3.59,.61,12.88
06/09/2017,07:30:00,18.32,.92,7.37,8.63,91.98,4.59,3.22,.64,12.98
06/09/2017,07:45:00,18.32,.92,7.39,8.71,92.8,4.56,3.02,.61,13.01
06/09/2017,08:00:00,18.32,.92,7.38,8.69,92.67,4.7,3.31,.61,13.23
06/09/2017,08:15:00,18.33,.92,7.38,8.7,92.72,4.79,3.04,.59,13.22
06/09/2017,08:30:00,18.35,.92,7.39,8.71,92.95,4.75,2.72,.55,13.35
06/09/2017,08:45:00,18.37,.92,7.39,8.7,92.83,4.86,3.09,.54,13.33
06/09/2017,09:00:00,18.43,.93,7.4,8.74,93.38,4.77,2.76,.52,13.38
06/09/2017,09:15:00,18.47,.93,7.41,8.78,93.9,5.12,2.88,.63,13.41
06/09/2017,09:30:00,18.56,.93,7.42,8.82,94.47,5.02,2.87,.53,13.16
06/09/2017,09:45:00,18.62,.93,7.43,8.87,95.16,4.72,2.76,.54,13.35
06/09/2017,10:00:00,18.69,.93,7.44,8.94,96.07,5.65,2.67,.54,13.45
06/09/2017,10:15:00,18.66,.93,7.46,9.02,96.88,5.28,2.85,.57,13.21